Regional Weather Roundup
Issued by NWS

Home | Current Version | Previous Version | Graphics & Text | Print | Product List | Glossary On
Versions: 1 2 3 4 5 6 7 8 9 10 11 12 13 14 15 16 17 18 19 20 21 22 23 24 25 26 27 28 29 30 31 32 33 34 35 36 37 38 39 40 41 42 43 44 45 46 47 48 49 50
000
ASUS43 KDMX 210701
RWRIA

WEATHER ROUNDUP FOR IOWA
NATIONAL WEATHER SERVICE DES MOINES IA
100 AM CST SAT JAN 21 2017

NOTE: "FAIR" INDICATES FEW OR NO CLOUDS BELOW 12,000 FEET WITH NO
SIGNIFICANT WEATHER AND/OR OBSTRUCTIONS TO VISIBILITY.

* - THESE STATIONS ARE NOT NWS STATIONS...THUS NOT UNDER NWS
QUALITY CONTROL.  THEY ALSO DO NOT REPORT WEATHER SUCH
AS PRECIPITATION OR FOG.

IAZ001>003-012>014-020>022-031>034-043>046-210800-
   NORTHWEST IOWA

CITY           SKY/WX    TMP DP  RH WIND       PRES   REMARKS
CARROLL *      MIX PCPN  36  36 100 CALM      29.40F
CHEROKEE *     CLOUDY    36  36 100 CALM      29.40F
DENISON *      FOG       37  37 100 CALM      29.38F VSB 3/4
LE MARS *      CLOUDY    37  37 100 E8G14     29.39F WCI  31
ORANGE CITY *  FOG       36  36 100 E5        29.38F VSB 1   WCI  32
SHELDON *      CLOUDY    36  36 100 E8        29.38F WCI  29
SIOUX CITY     FOG       39  39 100 SE6       29.38F VSB 3/4 WCI  35
SPENCER        CLOUDY    35  35 100 E6        29.41F FOG     WCI  30
STORM LAKE *   FOG       36  36 100 SE8       29.40F VSB<1/4 WCI  29
$$

IAZ055>058-069>071-079>083-090>094-210800-
   SOUTHWEST IOWA

CITY           SKY/WX    TMP DP  RH WIND       PRES   REMARKS
ATLANTIC *     LGT RAIN  39  39 100 CALM      29.39F
AUDUBON *      RAIN      37  36  93 CALM      29.40F
CLARINDA *     FOG       43  43 100 CALM      29.42F VSB 1/2
COUNCIL BLFS * FOG       39  39 100 SE7       29.39S VSB 1/4 WCI  34
CRESTON *      CLOUDY    43  43 100 S7        29.41F FOG
HARLAN  *      FOG       39  39 100 CALM      29.42F VSB 1
LAMONI         FOG       46  45  96 S8        29.41F VSB 1/4
RED OAK *      LGT RAIN  41  41 100 S5        29.41R
SHENANDOAH *   CLOUDY    43  43 100 S7        29.41F FOG
$$

IAZ047>049-059>061-072>074-084-210800-
   CENTRAL IOWA

CITY           SKY/WX    TMP DP  RH WIND       PRES   REMARKS
AMES           RAIN      39  39 100 CALM      29.42F FOG
ANKENY *       LGT RAIN  41  41 100 SE7       29.43F
BOONE *        FOG       37  37 100 E7        29.40F VSB 1/4 WCI  32
CHARITON *     FOG       45  45 100 S10       29.41F VSB 1/4
DES MOINES     LGT RAIN  42  42 100 SE8       29.41F FOG
GRINNELL*      HVY RAIN  39  39  99 E10       29.44F VSB 1/2 WCI  32
KNOXVILLE *    FOG       43  43 100 SE8       29.40F VSB 1/4
MARSHALLTOWN   LGT RAIN  38  38 100 E10       29.42F VSB 1/4 WCI  31
NEWTON *       FOG       41  41 100 SE10G17   29.41F VSB 1/4
PELLA *        SNOW      42  42  99 SE9       29.44F VSB 1/4
PERRY *        LGT RAIN  38  38  97 SE3       29.41F VSB 1
$$

IAZ004>006-015-016-023>025-035-036-210800-
   NORTH CENTRAL IOWA

CITY           SKY/WX    TMP DP  RH WIND       PRES   REMARKS
ALGONA *       MIX PCPN  36  36 100 E9        29.42F WCI  29
CLARION *      FOG       36  36 100 E13       29.42F VSB 1/4 WCI  27
ESTHERVILLE    FOG       33  33 100 E6        29.42F VSB 1/2 WCI  28
FORT DODGE *   CLOUDY    36  34  93 E5        29.42F WCI  32
MASON CITY     FOG       34  34 100 E9        29.45F VSB 1/4 WCI  27
FOREST CITY *  FOG       34  34 100 E6        29.44F VSB 1/4 WCI  29
WEBSTER CITY * LGT RAIN  37 N/A N/A E10       29.40F VSB 1/2 WCI  30
IOWA FALLS *   FOG       37  36  98 E7        29.45F VSB 1/4 WCI  31
$$

IAZ007>011-017>019-026>030-037>042-050>054-066-210800-
   NORTHEAST IOWA

CITY           SKY/WX    TMP DP  RH WIND       PRES   REMARKS
CEDAR RAPIDS   FOG       39  39 100 E8        29.46F VSB 1/4 WCI  33
CHARLES CITY * FOG       36  36 100 E12       29.47F VSB 1/4 WCI  27
CLINTON *      LGT RAIN  40  40 100 E7        29.52F VSB 1/4
DECORAH *      FOG       36  36 100 E7        29.49F VSB<1/4 WCI  30
DUBUQUE        FOG       38  38 100 E9        29.51F VSB 1/4 WCI  31
MONTICELLO *   FOG       39  39 100 E8        29.49F VSB 1/4 WCI  34
OELWEIN *      MIX PCPN  37  36  93 E10       29.48F VSB<1/4 WCI  30
WATERLOO       FOG       37  36  96 E8        29.45F VSB 1/2 WCI  31
$$

IAZ064-065-067-068-078-210800-
   EAST CENTRAL IOWA

CITY           SKY/WX    TMP DP  RH WIND       PRES   REMARKS
DAVENPORT      LGT RAIN  41  40  96 E10       29.50F VSB 1/2
IOWA CITY      FOG       43  42  97 E7        29.49F VSB 3/4
MUSCATINE *    FOG       43  41  93 CALM      29.49F VSB 1/4
QUAD CITIES    LGT RAIN  42  40  92 E6        29.50F VSB 3/4
$$

IAZ062-063-075>077-085>089-095>099-210800-
   SOUTHEAST IOWA

CITY           SKY/WX    TMP DP  RH WIND       PRES   REMARKS
BURLINGTON     FOG       47  47 100 S7        29.48F VSB 1/2
FAIRFIELD *    FOG       45  45 100 S8        29.47S VSB 1/4
FORT MADISON * FOG       48  48 100 S12       29.49S VSB 1/4
KEOKUK *       MOCLDY    48 N/A N/A S9        29.48S FOG
OSKALOOSA *    LGT RAIN  42  41  98 SE12      29.43F VSB 1/4
OTTUMWA        FOG       45  44  97 SE9       29.42F VSB 1/4
WASHINGTON *   FOG       41  41 100 SE5       29.48F VSB<1/4
$$

ABBREVIATIONS USED IN REMARKS
   TC - TEMPERATURES IN CELSIUS
  WCI - WIND CHILL INDEX
   HX - HEAT INDEX
  VSB - VISIBILITY
$$





USA.gov is the U.S. government's official web portal to all federal, state and local government web resources and services.